Simultaneous Nadir Overpasses (SNOs) Predictions

Prediction of SNOs between GOES-17 and AQUA Satellite Orbit:

Table of predicted SNOs for the next 14.0 days since TLE Epoch: 7/18/2020
Index Date Time (GOES-17) GOES-17 Lat,Lon AQUA Lat,Lon Distance(km) Time Diff (sec)
1 07/19/2020 22:39:58 -0.03,-137.19 0.13,-136.42 88.05 80
2 07/20/2020 11:03:53 0.03,-137.19 0.97,-141.57 498.51 80
3 07/21/2020 22:27:47 -0.03,-137.18 0.76,-133.46 423.17 80
4 07/22/2020 10:49:02 0.03,-137.18 0.34,-138.62 163.55 80
5 07/24/2020 10:39:32 0.03,-137.17 -0.30,-135.67 170.90 80
6 07/24/2020 22:58:15 -0.03,-137.16 -0.80,-140.86 419.94 80
7 07/26/2020 22:46:03 -0.03,-137.14 -0.22,-137.89 86.07 80
8 07/28/2020 22:36:32 -0.03,-137.11 0.43,-134.94 247.15 80
9 07/29/2020 10:55:08 0.02,-137.11 0.67,-140.10 340.13 80
10 07/31/2020 10:42:57 -0.02,-137.07 0.02,-137.14 9.07 80
